sat.trackr.live / text

‹ back to catalog

YAMAL 202

NORAD 28089 · 2003-053A

PAYLOAD ACTIVE UNKNOWN

§ Identity

Operator
Country
CIS
Launch date
2003-11-24
Launch site
TYMSC
Launch vehicle
Mass (kg)
RCS (m²)
79.43

Purposes: comms

External: N2YO · Heavens-Above · Gunter

§ Orbital elements

Epoch: 2026-09-12T04:25:06.343680Z

Period
1,436.10 min
Inclination
6.5556°
Eccentricity
0.0004357
Mean motion
1.00271483 rev/d
Perigee alt
35,768.3 km
Apogee alt
35,805.1 km
Semi-major
42,164.8 km
B*
0.0000e+0
RAAN
69.8461°
Arg perigee
114.1152°
Mean anomaly
37.0775°
Rev number
8,357

§ Raw data

YAMAL 2021 28089U 03053A   26255.18410120 -.00000092  00000+0  00000+0 0  99952 28089   6.5556  69.8461 0004357 114.1152  37.0775  1.00271483 83572

JSON: /api/v1/satellites/28089 · /tle

For live sub-satellite position, see the globe view (requires WebGL).

§ Visibility from observer

Set your observer location to see the next 7 days of passes ≥ 10°. The values pass through the URL so the page stays shareable.

No JS? Fill the form by hand. The geolocation button needs JavaScript.